This is the latest recevied weather packets stored in our database for station/object KE8RXN. If no packets are shown the sender has not sent any weather packets the latest 10 day(s).
| Time | Temp. | Humidity | Pressure | Rain* | Wind** | Luminosity | Snow |
|---|---|---|---|---|---|---|---|
| 1777377102 | 11.11° C | 90% | 1010.5 hPa | 0 mm | - | 11 W/m² | - |
| 1777376799 | 11.11° C | 90% | 1010.2 hPa | 0 mm | - | 11 W/m² | - |
| 1777376496 | 11.67° C | 90% | 1010.3 hPa | 0 mm | - | 7 W/m² | - |
| 1777376192 | 11.67° C | 90% | 1010.2 hPa | 0 mm | - | 7 W/m² | - |
| 1777375887 | 12.22° C | 89% | 1010 hPa | 0 mm | - | 6 W/m² | - |
| 1777375582 | 12.22° C | 89% | 1009.9 hPa | 0 mm | - | 4 W/m² | - |
| 1777375277 | 12.22° C | 90% | 1009.7 hPa | 0 mm | - | 5 W/m² | - |
| 1777374974 | 11.67° C | 90% | 1009.5 hPa | 0 mm | - | 2 W/m² | - |
| 1777374670 | 11.67° C | 90% | 1009.5 hPa | 0 mm | - | 2 W/m² | - |
| 1777374366 | 11.67° C | 90% | 1009.5 hPa | 0 mm | - | 1 W/m² | - |
| 1777374062 | 11.67° C | 91% | 1009.2 hPa | 0 mm | - | 0 W/m² | - |
| 1777373758 | 11.67° C | 91% | 1009.1 hPa | 0 mm | - | 0 W/m² | - |
| 1777373456 | 12.22° C | 91% | 1009.1 hPa | 0 mm | - | 0 W/m² | - |
| 1777373151 | 12.22° C | 91% | 1008.7 hPa | 0 mm | - | 0 W/m² | - |
| 1777372847 | 12.22° C | 91% | 1008.6 hPa | 0 mm | - | 0 W/m² | - |
| 1777372541 | 12.22° C | 91% | 1008.6 hPa | 0 mm | - | 0 W/m² | - |
| 1777372240 | 12.22° C | 91% | 1008.6 hPa | 0 mm | - | 0 W/m² | - |
| 1777371939 | 12.22° C | 91% | 1008.4 hPa | 0 mm | - | 0 W/m² | - |
| 1777371636 | 12.78° C | 91% | 1008.2 hPa | 0 mm | - | 0 W/m² | - |
| 1777371333 | 12.78° C | 91% | 1008.2 hPa | 0 mm | - | 0 W/m² | - |
| 1777371030 | 12.78° C | 91% | 1008.2 hPa | 0 mm | - | 0 W/m² | - |
| 1777370725 | 13.33° C | 91% | 1007.9 hPa | 0 mm | - | 0 W/m² | - |
| 1777370422 | 13.33° C | 90% | 1007.9 hPa | 0 mm | - | 0 W/m² | - |
| 1777370117 | 13.33° C | 91% | 1007.8 hPa | 0 mm | - | 0 W/m² | - |
| 1777369815 | 13.89° C | 92% | 1007.6 hPa | 0 mm | - | 0 W/m² | - |
* Rain latest hour (hover to see other rain measurements)
** Current wind speed in m/s (hover to see current wind gust speed)